Tracking 30923 objects as of 1-Jul-2025
HD Live streaming from Space Station
objects crossing your sky now

OBJECT F

Track OBJECT F now!
10-day predictions


NORAD ID: 57171
Int'l Code: 2023-091F
Perigee: 513.1 km
Apogee: 528.4 km
Inclination: 97.6 °
Period: 94.9 minutes
Semi major axis: 6891 km
RCS: Unknown
Launch date: June 27, 2023
Source: (TBD)
Launch site: VOSTOCHNY COSMODROME (VOSTO)
Your satellite tracking list
Your tracking list is empty




NASA's NSSDC Master Catalog

Two Line Element Set (TLE):
1 57171U 23091F   25181.83390866  .00005160  00000-0  26100-3 0  9990
2 57171  97.5605 238.3615 0011055 254.6803 105.3209 15.17433222110768
Source of the keplerian elements: AFSPC